TimeCDT,TemperatureF,Dew PointF,Humidity,Sea Level PressureIn,VisibilityMPH,Wind Direction,Wind SpeedMPH,Gust SpeedMPH,PrecipitationIn,Events,Conditions,WindDirDegrees,DateUTC
12:53 AM,66.0,57.0,73,29.83,9.0,SSE,5.8,-,N/A,,Clear,160,2013-04-30 05:53:00
1:53 AM,64.9,57.0,75,29.82,9.0,South,5.8,-,N/A,,Clear,170,2013-04-30 06:53:00
2:53 AM,64.0,55.9,75,29.82,10.0,South,5.8,-,N/A,,Clear,170,2013-04-30 07:53:00
3:53 AM,64.0,55.9,75,29.83,9.0,South,6.9,-,N/A,,Clear,170,2013-04-30 08:53:00
4:53 AM,62.1,55.0,78,29.83,9.0,South,5.8,-,N/A,,Clear,170,2013-04-30 09:53:00
5:53 AM,61.0,55.0,81,29.83,9.0,South,6.9,-,N/A,,Clear,170,2013-04-30 10:53:00
6:53 AM,62.1,55.0,78,29.86,8.0,South,5.8,-,N/A,,Clear,170,2013-04-30 11:53:00
7:53 AM,64.9,55.9,73,29.87,8.0,SSE,3.5,-,N/A,,Clear,160,2013-04-30 12:53:00
8:53 AM,69.1,55.9,63,29.89,9.0,SSW,6.9,-,N/A,,Clear,200,2013-04-30 13:53:00
9:53 AM,73.0,55.9,55,29.89,9.0,South,6.9,-,N/A,,Clear,170,2013-04-30 14:53:00
10:53 AM,77.0,55.0,47,29.89,9.0,South,9.2,-,N/A,,Clear,180,2013-04-30 15:53:00
11:53 AM,80.1,54.0,40,29.88,9.0,South,9.2,-,N/A,,Scattered Clouds,190,2013-04-30 16:53:00
12:53 PM,81.0,50.0,34,29.86,9.0,South,8.1,-,N/A,,Clear,170,2013-04-30 17:53:00
1:53 PM,82.9,50.0,32,29.85,9.0,South,10.4,17.3,N/A,,Clear,190,2013-04-30 18:53:00
2:53 PM,82.9,45.0,26,29.85,10.0,SE,13.8,25.3,N/A,,Clear,140,2013-04-30 19:53:00
3:53 PM,82.9,43.0,24,29.83,10.0,South,12.7,21.9,N/A,,Clear,170,2013-04-30 20:53:00
4:53 PM,82.0,42.1,24,29.83,10.0,South,12.7,19.6,N/A,,Clear,190,2013-04-30 21:53:00
5:53 PM,81.0,44.1,27,29.83,9.0,South,10.4,17.3,N/A,,Clear,170,2013-04-30 22:53:00
6:53 PM,78.1,43.0,29,29.84,10.0,SSE,8.1,-,N/A,,Clear,160,2013-04-30 23:53:00
7:53 PM,73.0,46.0,38,29.86,10.0,SSE,3.5,-,N/A,,Clear,150,2013-05-01 00:53:00
8:53 PM,71.1,46.0,41,29.86,10.0,ESE,4.6,-,N/A,,Clear,120,2013-05-01 01:53:00
9:53 PM,68.0,48.9,50,29.88,10.0,ESE,4.6,-,N/A,,Clear,110,2013-05-01 02:53:00
10:53 PM,66.9,50.0,54,29.89,10.0,ESE,4.6,-,N/A,,Clear,120,2013-05-01 03:53:00
11:53 PM,64.9,51.1,61,29.89,10.0,East,3.5,-,N/A,,Clear,90,2013-05-01 04:53:00